OBJECT B, 53445

Orbit data source: Space-Track

You're viewing an Uncataloged Satellite

Recently launched and/or uncataloged satellites may have evolving metadata. Metadata may include but not limited to: Owner, Maufacturer, Bus, Motor, and Mission.

OBJECT B, 53445 is a satellite owned by Changguang WJ (CN) in SSO that was launched on Wed, 10 Aug 2022 UTC via a CHANG ZHENG 6 launch vehicle from the Taiyaun Space Center, China (TSC). Unknown objects in Earth's orbit typically refer to objects detected orbiting the Earth but have not yet been identified or cataloged. These objects could be anything from previously untracked satellites, spent rocket stages, debris from satellite collisions, or even natural meteoroids temporarily captured by Earth's gravity.

Loading next visibility...
Identifier
53445, 2022-098B
Orbit
SSO
Country
Flag of CNCN / PRC
Related business
Manufacturer
Changguang WJ
Mission
Operational Commercial Imaging
Bus & Motor
JL-1, Unknown motor
Mass
42 kg wet, 42 kg dry
Launch date (UTC)
2022-08-10 (3 years ago)
Launch vehicle
CHANG ZHENG 6
Launch site
Taiyaun Space Center, China (TSC)
Object type
Unknown
Shape & HBR
Box + 2 Pan, 0.8 m
Radar Cross Section
2.000 m², Medium (>0.1 m² and < 1m²)

Expand to show TLE details & history
Last TLE update: 7 hours ago

TLE from 7 hours ago
0 OBJECT B
1 53445U 22098B   25298.96013770  .00036078  00000-0  83515-3 0  9990
2 53445  97.5445  51.2536 0004817 144.4517 215.7052 15.42364777178267
Epoch: 2025-10-25T23:02Z
TLE epoch observation values (Epoch: 2025-10-25T23:02:35.897Z)
Latitude
0.00004°
Longitude
31.02083°
Altitude
444.916 km
Speed
7.644 km/s
True Right ascension
03h 25m 00s
True Declination
0° 00' 00"
Sunlit
Object was in full shadow at epoch
Visualization orbit readout
Latitude
Unknown
Longitude
Unknown
Altitude
Unknown
Speed
Unknown
Apparent Right ascension
Unknown
Apparent Declination
Unknown
Sunlit
N/A
Visualization observer readout
Local Sidereal Time
01:39:35
Azimuth
Unknown
Elevation
Unknown
Doppler factor
Unknown
Orbital elements
Apogee altitude
439.357 km
Perigee altitude
432.792 km
Semi-major axis
6,814.211 km
Eccentricity
0.00048
Inclination
97.5445°
RAAN
51.2536°
Arg. of periapsis
144.4517°
True anomaly
215.673°
Mean anomaly
215.7052°
Eccentric anomaly
215.6891°
Mean motion
3.85851 °/min
Orbital period
93.3 mins
BSTAR
0.00083515
Loading maneuver chart data...
Computing Atmospheric mass density...
Loading historical data...
Loading historical data...
Loading historical data...
Loading historical data...
Loading historical data...
Loading historical data...
Loading historical data...

Documentation

Showing up to 5 results
|